FW4606 Weather Reports


Display with metric or nautical units.
time (UTC)temp
F
wind
direction
speed
MPH
gust
MPH
rain 1hr
in
rain 24hr
in
rain mn
in
humidity
%
barometer
mb
20260901060014 63 122 0.0 0.0 0.00 0.00 0.00 95 1013.7
20260901055508 63 122 0.0 0.0 0.00 0.00 0.00 94 1013.7
20260901055001 63 122 0.0 0.0 0.00 0.00 0.00 94 1013.7
20260901054456 63 121 0.0 0.0 0.00 0.00 0.00 94 1013.7
20260901053950 63 121 0.0 0.0 0.00 0.00 0.00 94 1013.6
20260901053450 63 122 0.0 0.0 0.00 0.00 0.00 94 1013.6
20260901053217 64 122 0.0 0.0 0.00 0.00 0.00 94 1013.6
20260901052446 64 121 0.0 0.0 0.00 0.00 0.00 93 1013.6
20260901051949 64 121 0.0 0.0 0.00 0.00 0.00 93 1013.6
20260901051446 64 121 0.0 0.0 0.00 0.00 0.00 93 1013.5
20260901050944 64 122 0.0 0.0 0.00 0.00 0.00 93 1013.4
20260901050441 65 121 0.0 0.0 0.00 0.00 0.00 93 1013.5
20260901045940 65 121 0.0 0.0 0.00 0.00 0.00 93 1013.4
20260901045440 65 121 0.0 0.0 0.00 0.00 0.00 93 1013.4
20260901044939 65 122 0.0 0.0 0.00 0.00 0.00 92 1013.4
20260901044439 65 122 0.0 0.0 0.00 0.00 0.00 92 1013.1
20260901043940 65 121 0.0 0.0 0.00 0.00 0.00 92 1013.1
20260901043441 66 121 0.0 0.0 0.00 0.00 0.00 91 1013.1
20260901043209 66 121 0.0 0.0 0.00 0.00 0.00 91 1013.0
20260901042435 66 121 0.0 0.0 0.00 0.00 0.00 91 1013.0
20260901041935 67 121 0.0 0.0 0.00 0.00 0.00 90 1013.0
20260901041707 67 121 0.0 0.0 0.00 0.00 0.00 90 1012.8
20260901040936 67 121 0.0 0.0 0.00 0.00 0.00 90 1012.9
20260901040436 67 122 0.0 0.0 0.00 0.00 0.00 90 1013.0
20260901035936 67 121 0.0 0.0 0.00 0.00 0.00 90 1013.0
20260901035706 67 121 0.0 0.0 0.00 0.00 0.00 90 1012.9
20260901034937 68 121 0.0 0.0 0.00 0.00 0.00 89 1013.0
20260901034433 68 122 0.0 0.0 0.00 0.00 0.00 89 1013.0
20260901033933 68 121 0.0 0.0 0.00 0.00 0.00 89 1013.1
20260901033438 69 121 0.0 0.0 0.00 0.00 0.00 88 1013.0
20260901033432 68 121 0.0 0.0 0.00 0.00 0.00 89 1013.1
20260901032433 69 122 0.0 0.0 0.00 0.00 0.00 88 1013.0
20260901031931 69 121 0.0 0.0 0.00 0.00 0.00 89 1012.9
20260901031433 69 121 0.0 0.0 0.00 0.00 0.00 89 1012.8
20260901030933 69 122 0.0 0.0 0.00 0.00 0.00 89 1012.9
20260901030708 68 121 0.0 0.0 0.00 0.00 0.00 89 1012.8
20260901025928 68 122 0.0 0.0 0.00 0.00 0.00 87 1012.8
20260901025429 69 122 0.0 0.0 0.00 0.00 0.00 87 1012.8
20260901024929 69 122 0.0 0.0 0.00 0.00 0.00 86 1012.8
20260901024427 69 121 0.0 0.0 0.00 0.00 0.00 85 1012.8
20260901023929 70 121 0.0 0.0 0.00 0.00 0.00 84 1012.7
20260901023426 70 122 0.0 0.0 0.00 0.00 0.00 84 1012.7
20260901022926 70 121 0.0 0.0 0.00 0.00 0.00 84 1012.6
20260901022429 71 121 0.0 0.0 0.00 0.00 0.00 84 1012.5
20260901021926 71 121 0.0 0.0 0.00 0.00 0.00 82 1012.6
20260901021425 72 121 0.0 0.0 0.00 0.00 0.00 81 1012.5
20260901020921 72 121 0.0 0.0 0.00 0.00 0.00 80 1012.5
20260901020424 73 121 0.0 0.0 0.00 0.00 0.00 79 1012.5
20260901015916 73 122 0.0 0.0 0.00 0.00 0.00 79 1012.5
20260901015418 73 122 0.0 0.0 0.00 0.00 0.00 79 1012.4
20260901014911 73 121 0.0 0.0 0.00 0.00 0.00 79 1012.4
20260901014410 74 122 0.0 0.0 0.00 0.00 0.00 79 1012.3
20260901013911 74 122 0.0 0.0 0.00 0.00 0.00 78 1012.2
20260901013646 74 121 0.0 0.0 0.00 0.00 0.00 77 1012.2
20260901013407 74 121 0.0 0.0 0.00 0.00 0.00 78 1012.2
20260901012407 75 121 0.0 0.0 0.00 0.00 0.00 76 1012.1
20260901011907 75 121 0.0 0.0 0.00 0.00 0.00 76 1012.1
20260901011403 76 121 0.0 0.0 0.00 0.00 0.00 75 1012.0
20260901011135 76 121 0.0 0.0 0.00 0.00 0.00 74 1012.0
20260901010404 77 122 0.0 0.0 0.00 0.00 0.00 73 1012.0
20260901005903 77 121 0.0 0.0 0.00 0.00 0.00 72 1012.0
20260901005405 78 122 0.0 0.0 0.00 0.00 0.00 71 1012.0
20260901004902 78 121 0.0 0.0 0.00 0.00 0.00 71 1012.0
20260901004359 79 121 0.0 0.0 0.00 0.00 0.00 70 1011.9
20260901004126 80 121 0.0 0.0 0.00 0.00 0.00 67 1011.9
20260901004000 79 121 0.0 0.0 0.00 0.00 0.00 68 1011.8
20260901003119 81 121 0.0 0.0 0.00 0.00 0.00 64 1011.9
20260901002347 82 121 0.0 0.0 0.00 0.00 0.00 62 1011.8
20260901001846 82 122 0.0 0.0 0.00 0.00 0.00 61 1011.8
20260901001347 83 121 0.0 0.0 0.00 0.00 0.00 59 1011.8
20260901000843 83 121 0.0 0.0 0.00 0.00 0.00 58 1011.8
20260901000345 84 121 0.0 0.0 0.00 0.00 0.00 57 1011.8
20260831235841 84 121 0.0 0.0 0.00 0.00 0.00 54 1011.8
20260831235341 84 121 0.0 0.0 0.00 0.00 0.00 53 1011.7
20260831234839 85 121 0.0 0.0 0.00 0.00 0.00 51 1011.8
20260831234339 85 121 0.0 0.0 0.00 0.00 0.00 52 1011.7
20260831233838 86 121 0.0 0.0 0.00 0.00 0.00 51 1011.7
20260831233336 87 121 0.0 0.0 0.00 0.00 0.00 50 1011.6
20260831232833 87 121 0.0 0.0 0.00 0.00 0.00 48 1011.7
20260831232333 87 121 0.0 0.0 0.00 0.00 0.00 49 1011.7
20260831231837 87 121 0.0 0.0 0.00 0.00 0.00 47 1011.7
20260831231333 88 121 0.0 0.0 0.00 0.00 0.00 46 1011.6
20260831230832 88 122 0.0 0.0 0.00 0.00 0.00 45 1011.7
20260831230332 89 121 0.0 0.0 0.00 0.00 0.00 44 1011.6
20260831225826 89 121 0.0 0.0 0.00 0.00 0.00 44 1011.6
20260831225319 90 121 0.0 0.0 0.00 0.00 0.00 43 1011.6
20260831224814 91 121 0.0 0.0 0.00 0.00 0.00 43 1011.7
20260831224308 92 156 0.0 1.0 0.00 0.00 0.00 43 1011.5
20260831223802 92 158 0.0 1.0 0.00 0.00 0.00 44 1011.6
20260831223255 92 138 0.0 0.0 0.00 0.00 0.00 44 1011.6
20260831222751 92 135 0.0 1.0 0.00 0.00 0.00 40 1011.6
20260831222745 92 134 0.0 1.0 0.00 0.00 0.00 41 1011.4
20260831222008 92 39 0.0 1.0 0.00 0.00 0.00 43 1011.5
20260831221505 92 75 0.0 1.0 0.00 0.00 0.00 40 1011.5
20260831220726 92 351 0.0 3.0 0.00 0.00 0.00 40 1011.4
20260831220219 92 108 1.0 6.0 0.00 0.00 0.00 41 1011.3
20260831215714 92 162 1.0 6.0 0.00 0.00 0.00 39 1011.4
20260831215208 92 113 0.0 3.0 0.00 0.00 0.00 42 1011.3
20260831214702 91 134 0.0 3.0 0.00 0.00 0.00 47 1011.3
20260831214156 91 143 0.0 1.0 0.00 0.00 0.00 43 1011.3
20260831213650 92 146 0.0 1.0 0.00 0.00 0.00 43 1011.3
20260831213144 92 146 0.0 1.0 0.00 0.00 0.00 40 1011.2
20260831212638 93 181 0.0 1.0 0.00 0.00 0.00 38 1011.2
20260831212132 92 118 0.0 2.0 0.00 0.00 0.00 40 1011.2
20260831211632 92 94 0.0 2.0 0.00 0.00 0.00 43 1011.2
20260831211129 91 148 0.0 1.0 0.00 0.00 0.00 44 1011.2
20260831210628 92 113 0.0 1.0 0.00 0.00 0.00 43 1011.1
20260831210126 92 7 1.0 3.0 0.00 0.00 0.00 48 1011.1
20260831205625 91 117 1.0 4.0 0.00 0.00 0.00 46 1011.1
20260831205123 91 148 1.0 4.0 0.00 0.00 0.00 42 1011.2
20260831204854 91 92 1.0 4.0 0.00 0.00 0.00 43 1011.3
20260831204124 91 160 0.0 3.0 0.00 0.00 0.00 45 1011.2
20260831203851 92 115 0.0 3.0 0.00 0.00 0.00 44 1011.2
20260831203123 92 345 0.0 1.0 0.00 0.00 0.00 44 1011.2
20260831202620 91 359 0.0 1.0 0.00 0.00 0.00 43 1011.2
20260831202121 92 18 0.0 1.0 0.00 0.00 0.00 43 1011.2
20260831201625 91 94 0.0 3.0 0.00 0.00 0.00 41 1011.1
20260831201619 91 122 0.0 1.0 0.00 0.00 0.00 45 1011.2
20260831200619 91 12 0.0 3.0 0.00 0.00 0.00 44 1011.1
20260831200119 92 109 0.0 2.0 0.00 0.00 0.00 47 1011.1
20260831195852 91 109 0.0 2.0 0.00 0.00 0.00 44 1011.0
20260831195114 92 103 1.0 5.0 0.00 0.00 0.00 48 1010.9
20260831194609 91 141 1.0 5.0 0.00 0.00 0.00 45 1010.9
20260831194103 91 94 0.0 3.0 0.00 0.00 0.00 46 1010.9
20260831193557 91 5 0.0 3.0 0.00 0.00 0.00 46 1010.9
20260831193051 91 3 0.0 4.0 0.00 0.00 0.00 49 1010.9
20260831192544 91 132 0.0 4.0 0.00 0.00 0.00 47 1011.0
20260831192311 91 156 0.0 5.0 0.00 0.00 0.00 48 1011.0
20260831191533 91 92 0.0 5.0 0.00 0.00 0.00 52 1011.1
20260831191027 90 319 0.0 3.0 0.00 0.00 0.00 52 1011.2
20260831190521 90 128 0.0 3.0 0.00 0.00 0.00 52 1011.2
20260831190247 90 342 0.0 3.0 0.00 0.00 0.00 54 1011.1
20260831185740 89 345 0.0 3.0 0.00 0.00 0.00 54 1011.0
20260831185003 89 113 1.0 3.0 0.00 0.00 0.00 55 1011.0
20260831184503 89 77 1.0 3.0 0.00 0.00 0.00 57 1011.0
20260831184236 88 356 1.0 3.0 0.00 0.00 0.00 57 1011.0
20260831183503 88 99 0.0 3.0 0.00 0.00 0.00 58 1010.9
20260831183005 88 132 0.0 2.0 0.00 0.00 0.00 60 1011.0
20260831182504 88 345 0.0 3.0 0.00 0.00 0.00 60 1011.0
20260831182003 87 110 0.0 3.0 0.00 0.00 0.00 62 1011.0
20260831181504 87 44 1.0 5.0 0.00 0.00 0.00 62 1011.0
20260831181003 87 4 1.0 5.0 0.00 0.00 0.00 66 1011.1
20260831180735 86 69 1.0 4.0 0.00 0.00 0.00 64 1011.2
20260831180009 86 113 1.0 3.0 0.00 0.00 0.00 67 1011.3
20260831180003 86 194 1.0 4.0 0.00 0.00 0.00 64 1011.2
20260831175003 85 83 1.0 3.0 0.00 0.00 0.00 67 1011.2
20260831174504 85 117 1.0 3.0 0.00 0.00 0.00 70 1011.3
20260831174003 84 91 1.0 4.0 0.00 0.00 0.00 68 1011.2
20260831173735 84 107 1.0 4.0 0.00 0.00 0.00 72 1011.3
20260831173235 85 124 1.0 3.0 0.00 0.00 0.00 72 1011.3
20260831172458 84 238 1.0 4.0 0.00 0.00 0.00 77 1011.3
20260831171952 83 195 1.0 4.0 0.00 0.00 0.00 76 1011.4
20260831171446 83 230 1.0 3.0 0.00 0.00 0.00 76 1011.4
20260831170940 83 100 0.0 2.0 0.00 0.00 0.00 77 1011.4
20260831170434 83 112 0.0 2.0 0.00 0.00 0.00 80 1011.4
20260831165928 82 122 0.0 2.0 0.00 0.00 0.00 79 1011.4
20260831165422 81 33 0.0 2.0 0.00 0.00 0.00 80 1011.4
20260831164916 81 132 0.0 2.0 0.00 0.00 0.00 82 1011.4
20260831164410 80 141 0.0 2.0 0.00 0.00 0.00 84 1011.5
20260831163903 80 77 0.0 1.0 0.00 0.00 0.00 84 1011.4
20260831163358 79 105 0.0 1.0 0.00 0.00 0.00 84 1011.4
20260831162852 79 351 0.0 1.0 0.00 0.00 0.00 84 1011.4
20260831162347 79 307 0.0 1.0 0.00 0.00 0.00 84 1011.4
20260831161840 79 81 0.0 1.0 0.00 0.00 0.00 84 1011.3
20260831161334 79 138 0.0 2.0 0.00 0.00 0.00 85 1011.4
20260831160827 79 44 0.0 2.0 0.00 0.00 0.00 85 1011.3
20260831160322 80 0 0.0 2.0 0.00 0.00 0.00 85 1011.4
20260831155816 80 198 0.0 1.0 0.00 0.00 0.00 84 1011.3
20260831155310 80 198 0.0 1.0 0.00 0.00 0.00 85 1011.2
20260831154803 80 67 0.0 2.0 0.00 0.00 0.00 85 1011.1
20260831154259 80 129 0.0 2.0 0.00 0.00 0.00 88 1011.1
20260831154254 79 343 0.0 3.0 0.00 0.00 0.00 87 1010.8
20260831153245 79 97 0.0 3.0 0.00 0.00 0.00 87 1010.7
20260831152740 79 119 1.0 3.0 0.00 0.00 0.00 87 1010.7
20260831152234 79 102 0.0 3.0 0.00 0.00 0.00 88 1010.6
20260831151728 79 103 0.0 2.0 0.00 0.00 0.00 88 1010.6
20260831151221 79 89 0.0 3.0 0.00 0.00 0.00 88 1010.5
20260831150716 79 27 0.0 3.0 0.00 0.00 0.00 88 1010.5
20260831150209 79 109 0.0 1.0 0.00 0.00 0.00 88 1010.5
20260831145704 79 127 0.0 2.0 0.00 0.00 0.00 88 1010.4
20260831145158 78 162 0.0 2.0 0.00 0.00 0.00 88 1010.2
20260831144651 78 149 1.0 3.0 0.00 0.00 0.00 90 1010.2
20260831144146 78 143 1.0 3.0 0.00 0.00 0.00 89 1010.0
20260831143640 77 149 1.0 4.0 0.00 0.00 0.00 90 1010.0
20260831143405 77 201 1.0 4.0 0.00 0.00 0.00 91 1010.0
20260831142628 77 84 0.0 2.0 0.00 0.00 0.00 91 1009.9
20260831142121 77 149 0.0 3.0 0.00 0.00 0.00 91 1009.9
20260831141616 76 89 1.0 4.0 0.00 0.00 0.00 91 1009.8
20260831141109 77 120 1.0 4.0 0.00 0.00 0.00 91 1009.7
20260831140604 77 110 1.0 3.0 0.00 0.00 0.00 92 1009.6
20260831140328 76 127 1.0 3.0 0.00 0.00 0.00 92 1009.6
20260831135552 76 124 2.0 4.0 0.00 0.00 0.00 93 1009.5
20260831135046 75 127 2.0 4.0 0.00 0.00 0.00 93 1009.5
20260831134811 75 148 1.0 4.0 0.00 0.00 0.00 94 1009.3
20260831134034 74 225 1.0 4.0 0.00 0.00 0.00 95 1009.2
20260831133528 74 131 1.0 3.0 0.00 0.00 0.00 96 1009.1
20260831133022 73 158 0.0 2.0 0.00 0.00 0.00 97 1009.1
20260831132516 73 136 0.0 2.0 0.00 0.00 0.00 97 1009.2
20260831132010 73 160 0.0 2.0 0.00 0.00 0.00 97 1009.1
20260831131504 72 226 0.0 2.0 0.00 0.00 0.00 97 1009.1
20260831130958 72 218 0.0 1.0 0.00 0.00 0.00 97 1009.1
20260831130452 71 207 0.0 1.0 0.00 0.00 0.00 97 1009.1
20260831125945 71 214 0.0 1.0 0.00 0.00 0.00 97 1009.1
20260831125440 71 149 0.0 0.0 0.00 0.00 0.00 97 1009.0
20260831124933 70 149 0.0 0.0 0.00 0.00 0.00 97 1008.9
20260831124659 70 148 0.0 0.0 0.00 0.00 0.00 97 1008.9
20260831123922 70 150 0.0 0.0 0.00 0.00 0.00 97 1008.9
20260831123416 70 150 0.0 0.0 0.00 0.00 0.00 97 1008.8
20260831122910 70 150 0.0 0.0 0.00 0.00 0.00 97 1008.8
20260831122404 70 149 0.0 0.0 0.00 0.00 0.00 97 1008.6
20260831121858 70 148 0.0 0.0 0.00 0.00 0.00 97 1008.5
20260831121352 70 148 0.0 0.0 0.00 0.00 0.00 97 1008.3
20260831120846 69 148 0.0 0.0 0.00 0.00 0.00 97 1008.1
20260831120610 69 150 0.0 0.0 0.00 0.00 0.00 97 1008.2
20260831115834 69 150 0.0 0.0 0.00 0.00 0.00 96 1008.1
20260831115329 69 150 0.0 0.0 0.00 0.00 0.00 96 1008.1
20260831114822 69 149 0.0 0.0 0.00 0.00 0.00 96 1008.0
20260831114547 69 150 0.0 0.0 0.00 0.00 0.00 96 1008.2
20260831113810 69 149 0.0 0.0 0.00 0.00 0.00 96 1008.1
20260831113304 69 150 0.0 0.0 0.00 0.00 0.00 96 1008.1
20260831112757 69 149 0.0 0.0 0.00 0.00 0.00 96 1007.9
20260831112252 69 149 0.0 0.0 0.00 0.00 0.00 96 1007.9
20260831111746 70 149 0.0 0.0 0.00 0.00 0.00 96 1007.9
20260831111240 70 149 0.0 0.0 0.00 0.00 0.00 96 1007.8
20260831110734 70 149 0.0 0.0 0.00 0.00 0.00 96 1007.8
20260831110228 70 150 0.0 0.0 0.00 0.00 0.00 96 1007.7
20260831105722 70 150 0.0 0.0 0.00 0.00 0.00 95 1007.8
20260831105215 70 149 0.0 0.0 0.00 0.00 0.00 95 1007.8
20260831104710 70 150 0.0 0.0 0.00 0.00 0.00 95 1007.9
20260831104204 71 149 0.0 0.0 0.00 0.00 0.00 96 1008.0
20260831103658 71 150 0.0 0.0 0.00 0.00 0.00 95 1007.8
20260831103152 71 148 0.0 0.0 0.00 0.00 0.00 95 1007.7
20260831102646 71 149 0.0 0.0 0.00 0.00 0.00 95 1007.7
20260831102140 71 149 0.0 0.0 0.00 0.00 0.00 95 1007.7
20260831101634 71 149 0.0 0.0 0.00 0.00 0.00 95 1007.7
20260831101128 71 150 0.0 0.0 0.00 0.00 0.00 95 1007.7
20260831100622 71 157 0.0 0.0 0.00 0.00 0.00 95 1007.6
20260831100116 71 156 0.0 0.0 0.00 0.00 0.00 95 1007.6
20260831095609 71 157 0.0 0.0 0.00 0.00 0.00 95 1007.5
20260831095103 71 157 0.0 0.0 0.00 0.00 0.00 95 1007.4
20260831094558 71 157 0.0 0.0 0.00 0.00 0.00 95 1007.3
20260831094052 71 157 0.0 0.0 0.00 0.00 0.00 95 1007.4
20260831093546 71 157 0.0 0.0 0.00 0.00 0.00 94 1007.3
20260831093040 71 157 0.0 0.0 0.00 0.00 0.00 94 1007.4
20260831092533 71 156 0.0 0.0 0.00 0.00 0.00 94 1007.4
20260831092028 71 156 0.0 0.0 0.00 0.00 0.00 94 1007.5
20260831091522 71 157 0.0 0.0 0.00 0.00 0.00 94 1007.5
20260831091242 71 157 0.0 0.0 0.00 0.00 0.00 94 1007.7
20260831091116 71 157 0.0 0.0 0.00 0.00 0.00 94 1007.7
20260831090004 71 157 0.0 0.0 0.00 0.00 0.00 94 1007.8
20260831085458 71 157 0.0 0.0 0.00 0.00 0.00 94 1007.6
20260831084952 71 152 0.0 0.0 0.00 0.00 0.00 93 1007.5
20260831084452 72 153 0.0 0.0 0.00 0.00 0.00 93 1007.4
20260831083949 72 152 0.0 0.0 0.00 0.00 0.00 93 1007.3
20260831083449 72 152 0.0 0.0 0.00 0.00 0.00 93 1007.4
20260831082953 72 151 0.0 0.0 0.00 0.00 0.00 93 1007.4
20260831082448 72 152 0.0 0.0 0.00 0.00 0.00 93 1007.4
20260831081946 72 152 0.0 0.0 0.00 0.00 0.00 93 1007.3
20260831081443 72 152 0.0 0.0 0.00 0.00 0.00 92 1007.3
20260831081212 72 152 0.0 0.0 0.00 0.00 0.00 92 1007.3
20260831080440 72 152 0.0 0.0 0.00 0.00 0.00 92 1007.2
20260831080209 73 151 0.0 2.0 0.00 0.00 0.00 92 1007.2
20260831075440 73 152 0.0 2.0 0.00 0.00 0.00 92 1007.1
20260831074938 73 156 0.0 1.0 0.00 0.00 0.00 92 1007.2
20260831074710 73 162 0.0 1.0 0.00 0.00 0.00 92 1007.3
20260831073937 73 201 0.0 1.0 0.00 0.00 0.00 92 1007.3
20260831073436 73 169 0.0 1.0 0.00 0.00 0.00 92 1007.2
20260831072934 73 214 0.0 1.0 0.00 0.00 0.00 92 1007.3
20260831072434 73 259 0.0 1.0 0.00 0.00 0.00 91 1007.4
20260831071930 73 259 0.0 1.0 0.00 0.00 0.00 91 1007.4
20260831071429 73 260 0.0 0.0 0.00 0.00 0.00 91 1007.5
20260831071206 73 259 0.0 0.0 0.00 0.00 0.00 91 1007.6
20260831070426 73 259 0.0 0.0 0.00 0.00 0.00 91 1007.6
20260831070152 73 226 0.0 0.0 0.00 0.00 0.00 91 1007.6
20260831065645 73 226 0.0 1.0 0.00 0.00 0.00 91 1007.5
20260831064908 73 226 0.0 1.0 0.00 0.00 0.00 91 1007.6
20260831064403 73 151 0.0 1.0 0.00 0.00 0.00 91 1007.7
20260831063856 73 246 0.0 0.0 0.00 0.00 0.00 91 1007.8
20260831063351 73 266 0.0 0.0 0.00 0.00 0.00 90 1007.8
20260831062844 73 266 0.0 0.0 0.00 0.00 0.00 90 1007.9
20260831062346 73 277 0.0 1.0 0.00 0.00 0.00 90 1008.0
20260831062342 73 266 0.0 1.0 0.00 0.00 0.00 90 1008.0
20260831061338 74 248 0.0 0.0 0.00 0.00 0.00 90 1008.0
20260831061111 74 249 0.0 1.0 0.00 0.00 0.00 90 1008.1
20260831060607 74 249 0.0 1.0 0.00 0.00 0.00 90 1008.0